This demonstration page uses our WeatherBlox Daily Observations layout. Learn more.

Left ArrowRight Arrow

38.88101, -77.10428

Hourly Observations for May 31, 2016

Temp ( °F °C ) Dew Point ( °F °C ) Humidity (%) Winds ( mph kmh ) Pressure ( in mb ) Visibility ( mi km ) Precip ( " mm )
12:19 am 00:19 Mostly Clear 72 22 68 20 88 88 SSW 6 9 29.97 1015 10 16 N/A
12:52 am 00:52 Cloudy 71 21.7 67 19.4 87 87 SSW 6 9 29.97 1015 10 16 N/A
12:54 am 00:54 Cloudy 72 22 66 19 83 83 SSW 5 7 29.97 1015 10 16 N/A
1:52 am 01:52 Cloudy 71 21.7 67 19.4 87 87 S 3 6 29.96 1015 10 16 N/A
2:49 am 02:49 Partly Cloudy 70 21 66 19 88 88 SW 7 11 29.94 1014 10 16 N/A
2:52 am 02:52 Partly Cloudy 70 21.1 67 19.4 90 90 SSW 8 13 29.95 1014 10 16 N/A
3:12 am 03:12 Cloudy 70 21 66 19 88 88 SSW 3 6 29.94 1014 10 16 N/A
3:52 am 03:52 Cloudy 71 21.7 67 19.4 87 87 WSW 3 6 29.95 1014 10 16 N/A
4:52 am 04:52 Cloudy 72 22.2 66 18.9 82 82 WNW 3 6 29.95 1014 10 16 N/A
5:52 am 05:52 Cloudy 72 22.2 64 17.8 76 76 WNW 5 7 29.95 1014 10 16 N/A
6:52 am 06:52 Mostly Cloudy 72 22.2 66 18.9 82 82 N N/A 29.96 1015 10 16 N/A
7:40 am 07:40 Mostly Cloudy 73 23 66 19 78 78 N 7 11 29.97 1015 10 16 N/A
7:52 am 07:52 Mostly Cloudy 74 23.3 67 19.4 79 79 N 8 13 29.98 1015 10 16 N/A
8:12 am 08:12 Partly Cloudy 73 23 68 20 83 83 NNW 6 9 30.00 1016 10 16 N/A
8:52 am 08:52 Partly Cloudy 75 23.9 68 20 79 79 N N/A 29.98 1015 10 16 N/A
9:33 am 09:33 Mostly Cloudy 76 24.4 69 20.6 79 79 E 3 6 30.00 1016 10 16 N/A
9:52 am 09:52 Cloudy 76 24.4 68 20 77 77 N N/A 29.99 1016 10 16 N/A
10:35 am 10:35 Cloudy 77 25 68 20 74 74 N N/A 30.00 1016 10 16 N/A
10:52 am 10:52 Mostly Cloudy 79 26.1 68 20 69 69 N N/A 29.99 1016 10 16 N/A
11:52 am 11:52 Mostly Cloudy 81 27 70 21 70 70 SE 5 7 30.00 1016 10 16 N/A
12:52 pm 12:52 Mostly Cloudy 84 28.9 68 20 59 59 N N/A 29.98 1015 10 16 N/A
1:52 pm 13:52 Mostly Cloudy 84 28.9 67 19.4 57 57 E 5 7 29.97 1015 10 16 N/A
2:52 pm 14:52 Mostly Cloudy 85 29.4 65 18.3 51 51 ENE 5 7 29.95 1014 10 16 N/A
3:52 pm 15:52 Partly Cloudy 84 28.9 64 17.8 51 51 N N/A 29.94 1014 10 16 N/A
4:52 pm 16:52 Mostly Cloudy 85 29.4 68 20 57 57 SSE 7 11 29.93 1014 10 16 N/A
5:11 pm 17:11 Mostly Cloudy 84 28.9 66 18.9 55 55 N N/A 29.94 1014 10 16 N/A
5:52 pm 17:52 Mostly Cloudy 83 28.3 67 19.4 59 59 S 5 7 29.93 1014 10 16 N/A
6:52 pm 18:52 Mostly Cloudy 82 27.8 69 20.6 65 65 S 7 11 29.94 1014 10 16 N/A
7:52 pm 19:52 Mostly Cloudy 80 26.7 69 20.6 69 69 SSE 8 13 29.96 1014 10 16 N/A
8:52 pm 20:52 Mostly Cloudy 76 24.4 68 20 77 77 S 5 7 29.97 1015 10 16 N/A
9:52 pm 21:52 Mostly Cloudy 76 24.4 68 20 77 77 S 3 6 29.99 1016 10 16 N/A
10:52 pm 22:52 Partly Cloudy 75 23.9 68 20 79 79 S 5 7 29.98 1015 10 16 N/A
11:52 pm 23:52 Partly Cloudy 74 23.3 70 21.1 88 88 S 3 6 29.99 1016 10 16 N/A

Powered by AerisWeather